Content
SEND FEEDBACK

Daily
Averages
Monthly
Summary
Philippines

BOOT, PHILIPPINES


Home > Asia > Philippines
Elevation: 36 feet     Latitude: 14 04N     Longitude: 121 03E

WEATHER
 
SELECT A DAY
Number of Records: 170,281;   Date Range: 7/1/96 - 4/15/14
 
SHARE

PRINT THIS DATA

[ ← Previous Day ]
WEATHER ALMANAC - OCTOBER 25, 2013
[ Next Day → ]
[ °C ]   °F
Weather ElementAverageHighLow
Temperature82 °F86 °F (10:00 am)78 °F (5:00 am)
Dewpoint72 °F74 °F (11:00 am)69.8 °F (10:00 am)
Humidity70.4 %79 % (8:00 pm)53 % (5:00 pm)
Barometer29.80 in29.87 in (11:00 pm)29.74 in (2:00 pm)
Wind Speed7.3 mph11.2 mph (11:00 am)
Weather ElementAverage
Visibility5.9 mi
Wind DirectionSSE (174.2 °)

Weather ElementTotal
Precipitation---
Cooling Degree Days17 (Base 65)
Growing Degree Days32 (Base 50)
Averaged from 31 records on October 25, 2013
WEATHER CONDITIONS BREAKOUT
WIND DIRECTION BREAKOUT
WEATHER BY HOUR - OCTOBER 25, 2013
[ °C ]   °F
Local TimeTemperatureDewpointHumidityBarometerVisibilityWind DirectionWind SpeedGust SpeedPrecipitationEventsConditions
1:00 AM80.6 °F71.6 °F74 %29.77 in5.6 miNorth (10°)9.2 mphMostly Cloudy
2:00 AM79.0 °F72.0 °F73 %29.78 in6.0 miNorth (10°)6.7 mphHaze
2:00 AM78.8 °F71.6 °F78 %29.77 in6.2 miNorth (10°)8.1 mphMostly Cloudy
3:00 AM78.8 °F71.6 °F78 %29.77 in6.2 miNorth (10°)8.1 mphMostly Cloudy
4:00 AM78.8 °F71.6 °F78 %29.77 in6.2 miNorth (10°)8.1 mphScattered Clouds
5:00 AM78.0 °F71.0 °F74 %29.77 in6.0 miNorth (10°)4.5 mphHaze
5:00 AM78.8 °F71.6 °F78 %29.77 in6.2 miNorth (10°)5.8 mphScattered Clouds
6:00 AM78.8 °F71.6 °F78 %29.80 in6.2 miNorth (10°)4.6 mphScattered Clouds
7:00 AM78.8 °F71.6 °F78 %29.80 in5.0 miNNW (340°)5.8 mphMostly Cloudy
8:00 AM81.0 °F72.0 °F68 %29.86 in5.0 miNorth6.7 mphHaze
8:00 AM80.6 °F71.6 °F74 %29.83 in5.0 miNorth (360°)8.1 mphMostly Cloudy
9:00 AM82.4 °F73.4 °F74 %29.83 in5.6 miNW (320°)6.9 mphPartly Cloudy
10:00 AM86.0 °F69.8 °F58 %29.83 in6.2 miNE (50°)6.9 mphPartly Cloudy
11:00 AM84.0 °F74.0 °F65 %29.82 in6.0 miWest (270°)11.2 mphPartly Cloudy
11:00 AM84.2 °F73.4 °F70 %29.80 in6.2 miWest (270°)10.4 mphPartly Cloudy
12:00 PM84.2 °F73.4 °F70 %29.80 in6.2 miWest (280°)10.4 mphPartly Cloudy
1:00 PM86.0 °F71.6 °F62 %29.77 in6.2 miWest (270°)9.2 mphPartly Cloudy
2:00 PM86.0 °F72.0 °F56 %29.75 in6.0 miWest (280°)11.2 mphScattered Clouds
2:00 PM86.0 °F73.4 °F66 %29.74 in6.2 miWest (280°)10.4 mphPartly Cloudy
3:00 PM86.0 °F71.6 °F62 %29.74 in6.2 miWNW (290°)6.9 mphPartly Cloudy
4:00 PM86.0 °F71.6 °F62 %29.74 in6.2 miWNW (290°)8.1 mphPartly Cloudy
5:00 PM85.0 °F71.0 °F53 %29.76 in6.0 miWest (270°)8.9 mphHaze
5:00 PM84.2 °F69.8 °F62 %29.77 in6.2 miWest (270°)8.1 mphPartly Cloudy
6:00 PM82.4 °F71.6 °F70 %29.77 in6.2 miWSW (250°)6.9 mphScattered Clouds
7:00 PM82.4 °F71.6 °F70 %29.80 in6.2 miSW (230°)3.5 mphPartly Cloudy
8:00 PM81.0 °F73.0 °F71 %29.85 in6.0 miSW (220°)2.2 mphHaze
8:00 PM80.6 °F73.4 °F79 %29.83 in5.6 miSW (220°)3.5 mphPartly Cloudy
9:00 PM80.6 °F73.4 °F79 %29.86 in5.0 miSouth (190°)3.5 mphPartly Cloudy
10:00 PM80.6 °F73.4 °F79 %29.86 in5.6 miNorth (10°)8.1 mphMostly Cloudy
11:00 PM81.0 °F72.0 °F68 %29.87 in6.0 miNorth6.7 mphHaze
11:00 PM80.6 °F71.6 °F74 %29.86 in6.2 miNorth (360°)8.1 mphMostly Cloudy
Hourly data recorded from RPLL, located 29.77 miles away from Boot, Philippines







STORIES FROM OUR PARTNERS